Location: Bühlhof
(48.7849°N, 8.6361°E)
Time: 10:14:51
(UTC+00:00)

Okean 1-7 - Pass Details

Date: 19 January 2026
Orbit: 566 x 587 km, 82.5° (Epoch: 18 February)

Event Time Altitude Azimuth Distance (km) Brightness Sun altitude
Rises 17:24:06 0° 153° (SSE) 2,757 6.3 -13.1°
Reaches altitude 10° 17:26:38 10° 137° (SE) 1,864 5.3 -13.5°
Enters shadow 17:29:20 21° 97° (E) 1,299 4.2 -14.0°
